Location: Grasslands National Park East Block
(49.0708°N, 106.5295°W)
Time: 23:50:29
(UTC-06:00)

Daily predictions for brighter satellites

Satellite Brightness Start Highest point End
(mag) Time Altitude Azimuth Time Altitude Azimuth Time Altitude Azimuth
Atlas Centaur 2 4.3 21:35:18 10° SW 21:39:55 18° S 21:44:56 10° SE
MetOp-A 4.2 21:35:27 10° SSE 21:40:47 71° ENE 21:46:08 10° N
Envisat 3.1 21:36:40 10° SSE 21:41:45 82° WSW 21:46:53 10° NNW
USA 245 4.3 21:37:29 10° SSE 21:42:52 53° ENE 21:47:20 10° N
SL-8 R/B 3.7 21:38:33 10° W 21:43:24 80° S 21:48:15 10° ESE
Cosmos 1634 Rocket 4.1 21:38:16 10° N 21:44:27 70° E 21:50:37 10° SSE
Cosmos 1943 Rocket 2.7 21:39:16 10° NNW 21:44:40 49° NE 21:50:04 10° SE
Cosmos 1238 4.1 21:41:41 10° S 21:44:41 81° E 21:47:50 10° N
Cosmos 407 Rocket 4.1 21:40:03 10° SSE 21:44:50 37° ESE 21:49:35 10° NE
Meteor 1-22 Rocket 4.4 21:39:55 10° N 21:45:28 62° ENE 21:51:13 10° SSE
SL-27 R/B 4.5 21:45:58 10° ESE 21:47:12 12° E 21:48:27 10° ENE
Cosmos-2242 4.3 21:43:43 10° N 21:47:31 27° ENE 21:51:18 10° SE
Nimbus 7 Rocket 4.4 21:41:52 10° NNE 21:47:53 80° ESE 21:53:47 10° SSW
Cosmos 1953 Rocket 4.1 21:45:04 10° SSE 21:49:14 42° E 21:53:26 10° NNE
Cosmos 1953 3.8 21:49:39 10° NNE 21:52:55 24° ENE 21:56:10 10° SE
Lacrosse 5 rocket 3.3 21:51:09 10° WNW 21:54:41 30° NNW 21:58:25 10° NE
Cosmos 1939 Rocket 4.0 21:52:12 10° S 21:56:10 43° W 22:00:08 10° NNW
Cosmos 1943 3.2 21:51:01 10° SSW 21:56:37 64° ESE 22:02:17 10° NNE
SL-08 RB Rocket 4.1 21:57:37 10° SE 22:02:01 51° ENE 22:06:23 10° N
Cosmos 2346 Rocket 4.5 21:57:55 10° S 22:04:03 74° E 22:10:10 10° NNE
Cosmos 2279 Rocket 4.2 21:57:55 10° N 22:04:06 60° ENE 22:10:17 10° SSE
Cosmos 1346 Rocket 2.8 22:03:56 10° S 22:07:47 62° E 22:11:44 10° NNE
Cosmos 1842 4.1 22:10:38 12° SSE 22:13:55 34° E 22:17:28 10° NNE
SeaSat 1 3.1 22:15:42 10° S 22:20:30 50° WSW 22:25:19 10° NW
Cosmos 1758 Rocket 3.5 22:18:26 10° S 22:22:48 74° E 22:27:09 10° NNE
ARGOS 3.2 22:18:20 10° SSE 22:23:44 88° WSW 22:29:13 10° NNW
ISS -3.3 22:20:29 10° WSW 22:23:46 88° NNW 22:27:03 10° ENE
CARTOSAT-1 4.1 22:22:12 14° SE 22:25:38 46° ENE 22:29:48 10° N
COSMOS 2455 3.6 22:22:32 10° SW 22:28:28 59° NW 22:34:26 10° NNE
Meteor 1-21 4.3 22:23:19 10° S 22:29:04 70° E 22:34:53 10° NNE
CZ-4B R/B 3.6 22:27:00 10° NNE 22:32:07 83° WNW 22:37:19 10° SSW
Cosmos 1766 3.6 22:30:56 10° NNW 22:34:56 68° W 22:38:30 13° S
Cosmos 2369 Rocket 3.5 22:30:18 10° NW 22:35:20 34° WSW 22:40:19 10° SSW
Cosmos 1758 3.4 22:37:01 10° N 22:41:09 71° E 22:44:05 18° SSE
Landsat 7 3.8 22:37:17 15° SSE 22:41:12 87° ENE 22:46:00 10° NNW
Cosmos 1190 Rocket 4.5 22:36:37 10° SSW 22:41:54 66° WNW 22:47:14 10° NNE
CZ-4 R/B 4.0 22:37:35 10° NNE 22:42:37 89° ESE 22:47:39 10° SSW
Cosmos 1570 Rocket 4.1 22:39:12 10° NNW 22:44:36 81° ENE 22:48:38 18° SSE
YAOGAN 6 4.1 22:41:23 10° SSW 22:44:47 33° W 22:48:12 10° NNW
DELTA 2 DEB (DPAF) 4.4 22:43:12 15° S 22:46:56 69° WSW 22:51:27 10° NNW
H-2A R/B 2.0 22:45:29 17° SSE 22:49:20 81° ENE 22:54:30 10° NNW
Cosmos 1842 Rocket 3.8 22:45:21 10° N 22:49:41 57° ENE 22:52:32 21° SSE
Cosmos 1140 Rocket 3.7 22:47:15 13° S 22:51:46 52° ESE 22:56:52 10° NNE
IGS 5A 3.5 22:49:10 20° SSE 22:51:58 72° ENE 22:56:08 10° N
SL-23 DEB 4.3 22:47:47 10° SW 22:53:04 45° SSE 22:56:30 10° ENE
Cosmos 1340 4.1 22:52:34 19° ESE 22:53:52 22° E 22:56:53 10° NE
Spot 4 3.9 22:51:05 19° SSE 22:54:27 70° ENE 22:59:14 10° N
Cosmos 1544 3.6 22:52:49 10° N 22:56:29 48° ENE 22:58:27 24° SE
Terra 1.8 22:53:35 19° SSE 22:57:01 88° ENE 23:01:49 10° NNW
Cosmos 2084 4.2 22:54:50 10° NW 22:58:43 40° SW 23:01:13 20° S
Lacrosse 4 Rocket 2.2 22:55:02 10° SW 22:58:59 51° NW 23:03:03 10° NNE
ATLAS 3B R/B 3.1 22:51:25 10° SW 22:59:08 80° NW 23:06:36 10° NE
Cosmos 676 Rocket 4.2 22:53:52 10° SSW 22:59:12 75° WNW 23:04:33 10° NNE
SAR-Lupe-2 3.7 22:57:57 22° S 23:00:09 72° WSW 23:03:46 10° NNW
Cosmos 1470 3.4 22:57:40 10° N 23:01:24 42° ENE 23:03:22 24° SE
Cosmos 1805 3.3 22:58:54 10° NNW 23:02:52 78° W 23:05:21 22° S
Lacrosse 5 3.1 23:04:11 10° NW 23:08:58 40° NNE 23:13:46 10° E
Aureole 2 3.9 23:05:56 10° NNW 23:09:00 88° WSW 23:10:04 36° SSE
NOSS 3-2 (A) 4.4 23:07:49 21° SSE 23:10:38 29° ESE 23:16:09 10° ENE
USA 234 3.8 23:09:10 19° SSE 23:13:32 44° SW 23:19:47 10° WNW
Cosmos 614 Rocket 4.2 23:10:34 20° S 23:13:55 52° ESE 23:19:00 10° NNE
Cosmos 1092 Rocket 4.1 23:11:45 20° S 23:16:14 63° E 23:22:25 10° NNE
COSMOS 2406 3.2 23:15:41 10° SSW 23:21:23 78° ESE 23:27:10 10° NNE
SL-27 R/B 3.1 23:18:58 11° SW 23:22:03 50° WNW 23:25:21 10° NNE
DMSP B5D2-2 4.0 23:16:56 10° NNE 23:22:15 84° ESE 23:26:17 18° SSW
Cosmos 2221 3.2 23:18:22 10° N 23:22:31 43° ENE 23:24:32 25° SE
Nadezhda 4 Rocket 4.0 23:19:24 16° S 23:24:41 88° WNW 23:31:03 10° N
Cosmos-2242 4.4 23:21:10 10° NNW 23:25:09 34° W 23:28:28 14° SSW
SL-8 R/B 4.3 23:21:11 10° W 23:25:42 40° SSW 23:27:36 27° SSE
Atlas Centaur 2 4.4 23:24:00 10° SW 23:28:11 15° SSW 23:28:39 15° S
Cosmos 1943 Rocket 3.4 23:23:22 10° NW 23:28:13 31° WSW 23:31:58 15° SSW
COSMOS 2487 2.6 23:28:09 35° SSE 23:29:22 55° ESE 23:32:55 10° NNE
Cosmos 1953 3.7 23:25:52 10° NNW 23:29:28 33° W 23:32:04 16° SSW
Cosmos 2082 Rocket 4.1 23:31:09 12° ESE 23:32:28 13° E 23:35:04 10° ENE
Lacrosse 5 rocket 3.3 23:31:13 10° NW 23:34:51 29° N 23:38:41 10° ENE
Cosmos 1656 Rocket 4.1 23:31:34 10° NW 23:37:06 53° WSW 23:40:20 24° S
Cosmos 1707 3.0 23:36:52 34° SSE 23:38:16 54° E 23:42:07 10° NNE
Cosmos 1818 3.6 23:37:37 10° NW 23:43:09 81° NE 23:46:23 25° SE
USA 238 DEB 3.8 23:37:09 10° SW 23:44:16 88° NW 23:51:23 10° NE
USA 238 3.8 23:37:16 10° SW 23:44:22 88° NW 23:51:29 10° NE
CZ-4B R/B 3.1 23:44:45 21° ESE 23:46:12 28° ENE 23:49:24 10° N
IKONOS-2 4.5 23:46:49 34° SSE 23:48:39 89° E 23:52:58 10° NNW
Cosmos 1378 4.4 23:49:44 25° ESE 23:50:28 27° E 23:53:43 10° NNE
Cosmos 1689 Rocket 3.8 23:51:43 23° E 23:52:36 26° ENE 23:55:22 10° N
Cosmos 1655 Rocket 4.1 23:49:14 26° SSE 23:52:48 64° E 23:58:59 10° NNE
Cosmos 1607 3.9 23:46:43 10° SW 23:53:01 90° SE 23:59:15 10° NE
